#timestamp,LO_Frequency,Hit,StdDev 
1628913615.3,286046999.0,N
1628913635.1,286046999.5,N
1628913655.8,286046999.5,N
1628913675.7,286046999.4,N
1628913695.5,286047001.1,N
1628913715.3,286046999.2,N
1628913735.2,286046996.9,N
1628913755.0,286046996.9,N
1628913755.9,286046996.9,N
1628913775.8,286046996.9,N
1628913795.6,286046998.9,N
1628913815.4,286046998.1,N
1628913835.3,286046999.4,N
1628913855.1,286046999.2,N
1628913875.9,286046999.6,N
1628913895.7,286046998.9,N
1628913915.5,286046998.6,N
1628913935.4,286046998.6,N
1628913955.2,286047001.2,N
1628913975.0,286047000.5,N
1628913975.9,286047000.5,N
1628913995.8,286047001.0,N
1628914015.6,286047000.7,N
1628914035.5,286046999.7,N
1628914055.3,286047001.2,N
1628914075.1,286046998.8,N
1628914095.9,286046998.7,N
1628914115.7,286046999.8,N
1628914135.5,286047000.4,N
1628914155.4,286047000.7,N
1628914175.2,286047000.5,N
1628914195.1,286047001.1,N
1628914196.0,286047001.1,N
1628914215.8,286047000.7,N
1628914235.6,286047001.2,N
1628914255.5,286047000.5,N
1628914275.3,286047000.8,N
1628914295.1,286047000.8,N
1628914315.9,286047001.0,N
1628914335.7,286046998.1,N
1628914355.6,286046998.1,N
1628914375.4,286047001.2,N
1628914395.2,286047001.0,N
1628914415.1,286046998.3,N
1628914416.0,286046998.3,N
1628914435.8,286046998.1,N
1628914455.6,286046998.2,N
1628914475.5,286046999.6,N
1628914495.3,286046998.9,N
1628914515.2,286047000.6,N
1628914535.9,286047000.9,N
1628914555.7,286047000.9,N
1628914575.6,286047002.2,N
1628914595.4,286047002.1,N
1628914615.2,286047001.9,N
1628914635.1,286047004.3,Y
1628914636.0,286047004.3,P
1628914655.8,286047002.5,N
1628914675.7,286047002.6,N
1628914695.5,286047000.1,N
1628914715.3,286047001.2,N
1628914735.2,286046998.2,N
1628914755.0,286046998.3,N
1628914755.9,286046998.3,N
1628914775.7,286047000.8,N
1628914795.6,286047000.0,N
1628914815.4,286047002.8,N
1628914835.3,286047000.0,N
1628914855.1,286047001.0,N
1628914856.0,286047001.0,N
1628914875.8,286047001.2,N
1628914895.7,286047002.6,N
1628914915.5,286047002.7,N
1628914935.3,286047000.9,N
1628914955.2,286046999.9,N
1628914975.0,286047000.5,N
1628914975.9,286047000.5,N
1628914995.8,286047001.0,N
1628915015.6,286047000.5,N
1628915035.4,286047000.9,N
1628915055.3,286047000.4,N
1628915075.1,286047000.2,N
1628915095.8,286047002.2,N
1628915115.7,286047002.0,N
1628915135.5,286047000.2,N
1628915155.4,286047002.5,N
1628915175.2,286047002.4,N
1628915195.0,286047002.6,N
1628915195.9,286047002.6,N
1628915215.8,286046999.7,N
1628915235.6,286047002.4,N
1628915255.4,286047002.7,N
1628915275.3,286047002.2,N
1628915295.1,286047004.0,Y
1628915315.9,286047002.5,P
1628915335.7,286047001.5,N
1628915355.5,286047001.9,P
1628915375.4,286047001.3,N
1628915395.2,286047001.7,Y
1628915415.1,286046999.9,P
1628915416.0,286046999.9,N
1628915435.8,286047000.8,N
1628915455.6,286046998.8,N
1628915475.5,286046999.0,N
1628915495.3,286046999.2,N
1628915515.1,286046997.8,N
1628915535.9,286046995.0,Y
1628915555.7,286046995.6,P
1628915575.6,286046996.2,N
1628915595.4,286046995.8,N
1628915615.2,286046995.3,N
1628915635.1,286046995.1,Y
1628915636.0,286046995.1,P
1628915655.8,286046999.9,N
1628915675.6,286047000.1,N
1628915695.5,286047000.0,N
1628915715.3,286047000.4,N
1628915735.2,286047000.3,N
1628915755.0,286046999.7,N
1628915755.9,286046999.7,N
1628915775.7,286047000.9,N
1628915795.6,286047002.4,N
1628915815.4,286047000.2,N
1628915835.3,286047000.1,N
1628915855.1,286047002.6,N
1628915856.0,286047002.6,N
1628915875.8,286047002.5,N
1628915895.7,286047002.1,N
1628915915.5,286047002.2,N
1628915935.3,286047004.4,N
1628915955.2,286047002.1,N
1628915975.0,286047002.0,N
1628915975.9,286047002.0,N
1628915995.8,286047002.3,N
1628916015.6,286047000.0,N
1628916035.4,286047002.8,N
1628916055.3,286046999.9,N
1628916075.1,286047000.3,N
1628916095.8,286047000.6,N
1628916115.7,286047000.8,N
1628916135.5,286047000.5,N
1628916155.4,286047000.5,N
1628916175.2,286047000.2,N
1628916195.0,286047000.2,N
1628916226.0,286047002.6,E
1628916235.9,286047002.4,N
1628916255.7,286047000.7,P
1628916275.6,286047000.8,N
1628916295.4,286046998.2,N
1628916315.2,286046999.6,N
1628916335.1,286046999.1,N
1628916336.0,286046999.1,N
1628916355.8,286046999.2,N
1628916375.6,286046998.1,N
1628916395.5,286046998.2,N
1628916415.3,286046999.0,N
1628916435.2,286046999.1,N
1628916455.9,286046999.3,N
1628916475.7,286046999.4,N
1628916495.6,286046998.8,N
1628916515.4,286046999.1,N
1628916535.2,286046998.9,N
1628916555.1,286046998.9,N
1628916556.0,286046998.9,N
1628916575.8,286046998.7,N
1628916595.7,286046999.1,N
1628916615.5,286046997.0,Y
1628916635.3,286046996.6,P
1628916655.2,286046997.8,N
1628916675.0,286046996.7,P
1628916675.9,286046996.7,Y
1628916695.8,286047000.7,P
1628916715.6,286046998.1,N
1628916735.4,286047000.4,N
1628916755.3,286047000.6,N
1628916775.1,286047001.2,N
1628916795.8,286047001.1,N
1628916815.7,286046998.2,N
1628916835.5,286046998.4,N
1628916855.4,286046998.2,N
1628916875.2,286046998.2,N
1628916895.0,286046998.3,N
1628916895.9,286046998.3,N
1628916915.8,286046998.7,N
1628916935.6,286046998.6,N
1628916955.4,286047001.2,N
1628916975.3,286046999.2,N
1628916995.1,286046998.8,N
1628917015.9,286047001.1,N
1628917035.7,286047000.8,N
1628917055.5,286046998.5,N
1628917075.4,286046998.1,N
1628917095.2,286046999.4,N
1628917115.0,286046998.5,N
1628917115.9,286046998.5,N
1628917135.8,286047000.3,N
1628917155.6,286046998.5,N
1628917175.5,286046998.8,N
1628917195.3,286046998.3,N
